Weather History for Niagara Falls, NY

Change the Weather History Date:

Wednesday, January 15, 2014

  Actual Average Record
Temperature  
Mean Temperature 30 °F -  
Max Temperature 35 °F 26 °F 42 °F (1991)
Min Temperature 25 °F 14 °F -2 °F (2004)
Degree Days  
Heating Degree Days 34    
Moisture  
Dew Point 21 °F    
Average Humidity 70    
Maximum Humidity 85    
Minimum Humidity 57    
Precipitation  
Precipitation 0.00 in - - ()
Sea Level Pressure  
Sea Level Pressure 29.89 in    
Wind  
Wind Speed 14 mph (WSW)    
Max Wind Speed 28 mph    
Max Gust Speed 37 mph    
Visibility 10 miles    
Events Snow    
Averages and records for this station are not official NWS values.
T = Trace of Precipitation, MM = Missing Value Source: NWS Daily Summary

Daily Weather History Graph

Daily Weather History Graph

Search for Another Location

Airport:

Trip Planner

Search our weather history database for the weather conditions in past years. The results will help you decide how hot, cold, wet, or windy it might be!

Date:

Astronomy

Jan. 15, 2014 Rise Set
Actual Time 7:44 AM EST 5:06 PM EST
Civil Twilight 7:13 AM EST 5:37 PM EST
Nautical Twilight 6:37 AM EST 6:12 PM EST
Astronomical Twilight 6:03 AM EST 6:46 PM EST
Moon 5:04 PM EST (1/15) 6:58 AM EST (1/15)
Length of Visible Light 10h 24m
Length of Day
9h 21m
Full, 100% of the Moon is Illuminated
Jan 15
Full
Jan 15
Full
Jan 24
Last Quarter
Jan 30
New
Feb 6
First Quarter

Hourly Weather History & Observations

Time (EST) Temp. Windchill Dew Point Humidity Pressure Visibility Wind Dir Wind Speed Gust Speed Precip Events Conditions
12:53 AM 30.9 °F 27.5 °F 27.0 °F 85% 29.78 in 6.0 mi South 3.5 mph - N/A   Overcast
1:53 AM 34.0 °F 27.2 °F 28.0 °F 79% 29.77 in 8.0 mi SSW 8.1 mph - N/A   Overcast
2:53 AM 34.0 °F 28.8 °F 28.9 °F 82% 29.77 in 9.0 mi South 5.8 mph - N/A   Overcast
3:20 AM 35.6 °F 28.0 °F 28.4 °F 75% 29.73 in 9.0 mi SSW 10.4 mph - N/A   Overcast
3:41 AM 33.8 °F 24.8 °F 28.4 °F 81% 29.73 in 10.0 mi SW 12.7 mph - N/A   Overcast
3:53 AM 35.1 °F 25.9 °F 28.0 °F 76% 29.77 in 10.0 mi SW 13.8 mph - N/A   Overcast
4:53 AM 33.1 °F 22.2 °F 26.1 °F 75% 29.80 in 10.0 mi SW 17.3 mph 25.3 mph N/A   Overcast
5:38 AM 32.0 °F 20.1 °F 23.0 °F 69% 29.77 in 10.0 mi WSW 19.6 mph 26.5 mph N/A   Overcast
5:53 AM 30.9 °F 19.1 °F 21.9 °F 69% 29.82 in 10.0 mi SW 18.4 mph 29.9 mph N/A   Overcast
6:53 AM 30.9 °F 18.7 °F 21.0 °F 67% 29.84 in 10.0 mi WSW 19.6 mph 28.8 mph N/A   Overcast
7:00 AM 30.2 °F 17.8 °F 19.4 °F 64% 29.80 in 10.0 mi WSW 19.6 mph 29.9 mph N/A   Overcast
7:53 AM 30.0 °F 16.6 °F 19.9 °F 66% 29.86 in 10.0 mi WSW 23.0 mph 34.5 mph N/A   Mostly Cloudy
8:53 AM 30.0 °F 16.9 °F 18.0 °F 61% 29.89 in 10.0 mi WSW 21.9 mph 33.4 mph N/A   Mostly Cloudy
9:53 AM 30.0 °F 16.3 °F 19.0 °F 64% 29.91 in 10.0 mi WSW 24.2 mph 32.2 mph N/A   Mostly Cloudy
10:53 AM 30.9 °F 16.7 °F 18.0 °F 59% 29.92 in 10.0 mi WSW 27.6 mph 34.5 mph N/A   Mostly Cloudy
11:43 AM 32.0 °F 19.2 °F 19.4 °F 60% 29.87 in 10.0 mi SW 23.0 mph 31.1 mph 0.00 in Snow Light Snow
11:53 AM 30.9 °F 16.9 °F 21.0 °F 67% 29.91 in 7.0 mi WSW 26.5 mph 34.5 mph 0.00 in Snow Light Snow
12:08 PM 30.2 °F 16.8 °F 19.4 °F 64% 29.87 in 10.0 mi WSW 23.0 mph 36.8 mph 0.00 in   Mostly Cloudy
12:53 PM 30.9 °F 16.9 °F 19.0 °F 61% 29.91 in 10.0 mi WSW 26.5 mph 34.5 mph 0.00 in   Mostly Cloudy
1:53 PM 30.9 °F 17.2 °F 17.1 °F 57% 29.92 in 10.0 mi SW 25.3 mph 33.4 mph N/A   Mostly Cloudy
2:53 PM 30.9 °F 18.7 °F 17.1 °F 57% 29.93 in 10.0 mi WSW 19.6 mph 33.4 mph N/A   Scattered Clouds
3:53 PM 28.9 °F 15.4 °F 18.0 °F 64% 29.95 in 10.0 mi WSW 21.9 mph 29.9 mph N/A   Mostly Cloudy
4:53 PM 28.0 °F 15.3 °F 18.0 °F 66% 29.96 in 10.0 mi WSW 18.4 mph 28.8 mph N/A   Mostly Cloudy
5:53 PM 28.0 °F 15.3 °F 18.0 °F 66% 29.98 in 10.0 mi WSW 18.4 mph - N/A   Scattered Clouds
6:09 PM 28.4 °F 17.0 °F 19.4 °F 69% 29.93 in 10.0 mi WSW 15.0 mph 24.2 mph 0.00 in Snow Light Snow
6:20 PM 26.6 °F 13.8 °F 17.6 °F 69% 29.93 in 10.0 mi WSW 17.3 mph 23.0 mph 0.00 in   Scattered Clouds
6:53 PM 27.0 °F 15.2 °F 18.0 °F 69% 29.99 in 10.0 mi WSW 15.0 mph 23.0 mph 0.00 in   Mostly Cloudy
7:53 PM 28.0 °F 16.1 °F 19.0 °F 69% 30.00 in 10.0 mi West 16.1 mph 23.0 mph N/A   Overcast
8:36 PM 28.4 °F 18.0 °F 19.4 °F 69% 29.96 in 10.0 mi WSW 12.7 mph - 0.00 in Snow Light Snow
8:53 PM 27.0 °F 15.2 °F 19.0 °F 72% 30.02 in 10.0 mi WSW 15.0 mph 20.7 mph 0.00 in Snow Light Snow
9:53 PM 27.0 °F 17.3 °F 21.0 °F 78% 30.01 in 10.0 mi West 10.4 mph - 0.00 in Snow Light Snow
10:21 PM 26.6 °F 18.2 °F 21.2 °F 80% 29.96 in 10.0 mi WSW 8.1 mph - 0.00 in Snow Light Snow
10:53 PM 26.1 °F 19.4 °F 21.0 °F 81% 29.99 in 7.0 mi West 5.8 mph - 0.00 in Snow Light Snow
11:53 PM 25.0 °F 19.3 °F 19.9 °F 81% 29.99 in 8.0 mi West 4.6 mph - 0.00 in   Overcast